Simultaneous Nadir Overpasses (SNOs) Predictions

Prediction of SNOs between GOES-17 and METOP-C Satellite Orbit:

Table of predicted SNOs for the next 14.0 days since TLE Epoch: 3/16/2024
Index Date Time (GOES-17) GOES-17 Lat,Lon METOP-C Lat,Lon Distance(km) Time Diff (sec)
1 03/16/2024 16:28:55 -0.02,-104.69 -0.03,-104.52 18.42 80
2 03/19/2024 04:24:36 0.02,-104.68 0.17,-104.13 63.16 80
3 03/20/2024 16:43:26 -0.00,-104.68 0.92,-108.68 456.75 80
4 03/21/2024 16:25:26 0.01,-104.68 -0.21,-103.69 112.77 80
5 03/23/2024 04:44:26 -0.01,-104.69 -0.82,-108.28 409.90 80
6 03/24/2024 04:21:06 -0.01,-104.69 0.32,-103.29 159.46 80
7 03/25/2024 16:39:58 0.01,-104.68 0.72,-107.85 360.61 80
8 03/26/2024 16:21:58 0.01,-104.69 -0.42,-102.86 209.03 80
9 03/28/2024 04:40:56 -0.02,-104.70 -0.64,-107.44 313.19 80
10 03/29/2024 04:17:37 -0.02,-104.69 0.50,-102.45 256.03 80
